Location: Bemmer
(51.5498°N, 5.6249°E)
Time: 12:51:59
(UTC+00:00)

USA 305 - Pass Details

Date: 03 March 2021
Orbit: 567 x 574 km, 54.0° (Epoch: 13 April)

Event Time Altitude Azimuth Distance (km) Brightness Sun altitude
Rises 18:04:20 0° 262° (W) 2,779 8.8 -7.4°
Reaches altitude 10° 18:06:36 10° 265° (W) 1,880 7.3 -7.8°
Maximum altitude 18:10:52 69° 348° (NNW) 616 3.1 -8.5°
Enters shadow 18:14:59 11° 73° (ENE) 1,822 4.9 -9.1°
